Terminal Aerodrome Forecast
Issued by NWS

Home | Current Version | Previous Version | Graphics & Text | Print | Product List | Glossary Off
Versions: 1 2 3 4 5 6 7 8 9 10 11 12 13 14 15 16 17 18 19 20 21 22 23 24 25 26

000
FTUS43 KDDC 261000 AAC
TAFHYS
TAF AMD
KHYS 261000Z 2610/2706 31015G20KT P6SM FEW040 FEW120
     FM261500 33018G27KT P6SM BKN100
     FM262300 VRB06KT P6SM BKN150=

USA.gov is the U.S. government's official web portal to all federal, state and local government web resources and services.